Other Public Products
Issued by NWS Charleston, SC

Current Version | Previous Version | Graphics & Text | Print | Product List | Glossary On
Versions: 1 2 3 4 5 6 7 8 9 10 11 12 13 14 15 16 17 18 19 20 21 22 23 24 25 26 27 28 29 30 31 32 33 34 35 36 37 38 39 40 41 42 43 44 45 46 47 48 49 50
904 FPUS82 KCHS 240612 OPUCHS TEST...KCHS/KSAV Gateway Observations...TEST National Weather Service Charleston SC 200 AM EDT THU AUG 24 2017 NOTE: "fair" indicates few or no clouds below 12,000 feet with no significant weather and/or obstructions to visibility. SCZ050-WAZ558-NCZ071-TXZ119-213-PAZ071-DCZ001-FLZ074-172-MI076- NYZ176-178-MAZ016-IL014-TNZ027-NJZ106-GAZ044-MD014-240700- ...Gateway Observations for Charleston International... CITY SKY/WX TMP DP RH WIND PRES REMARKS Chas Airport CLOUDY 82 77 84 W5 29.86R THUNDER HX 90 6HR MIN TEMP: 81; 6HR MAX TEMP: 84; 6HR PCP: TRACE; Seattle MOCLDY 62 57 83 W5 29.99R 6HR MIN TEMP: 62; 6HR MAX TEMP: 75; Charlotte MOCLDY 75 65 70 NE8 29.90F 6HR MIN TEMP: 73; 6HR MAX TEMP: 82; Dallas DFW CLOUDY 82 71 69 E3 29.93F 6HR MIN TEMP: 82; 6HR MAX TEMP: 87; Dallas Love CLOUDY 82 70 66 E10 29.94F 6HR MIN TEMP: 82; 6HR MAX TEMP: 88; Philladelphia PTCLDY 69 57 65 NW6 29.89F 6HR MIN TEMP: 68; 6HR MAX TEMP: 79; Wash National PTCLDY 72 61 68 N7 29.92S 6HR MIN TEMP: 72; 6HR MAX TEMP: 81; Baltimore PTCLDY 67 60 78 N3 29.90F 6HR MIN TEMP: 65; 6HR MAX TEMP: 77; Miami CLOUDY 81 76 84 CALM 29.86F 6HR MIN TEMP: 79; 6HR MAX TEMP: 83; 6HR PCP: 0.01; Detroit PTCLDY 60 49 66 N6 30.01S 6HR MIN TEMP: 60; 6HR MAX TEMP: 70; Newark CLEAR 69 56 62 SW3 29.88S 6HR MIN TEMP: 69; 6HR MAX TEMP: 78; Laguardia CLEAR 74 55 51 NW5 29.87S 6HR MIN TEMP: 74; 6HR MAX TEMP: 79; J F K CLEAR 67 62 84 CALM 29.88F 6HR MIN TEMP: 67; 6HR MAX TEMP: 78; Boston Logan CLEAR 67 52 58 W9 29.85S 6HR MIN TEMP: 67; 6HR MAX TEMP: 76; Ft. Lauderdale PTCLDY 81 74 79 SE13 29.86F 6HR MIN TEMP: 81; 6HR MAX TEMP: 84; 6HR PCP: TRACE; Chicago O`Hare PTCLDY 64 55 72 CALM 30.03S 6HR MIN TEMP: 63; 6HR MAX TEMP: 72; Chicago Midway MOCLDY 66 57 72 SW5 30.03S 6HR MIN TEMP: 65; 6HR MAX TEMP: 71; Houston Bush MOCLDY 79 74 84 N5 29.90F 6HR MIN TEMP: 79; 6HR MAX TEMP: 89; Houston Hobby PTCLDY 83 74 74 CALM 29.89F 6HR MIN TEMP: 82; 6HR MAX TEMP: 91; Nashville PTCLDY 68 59 73 N6 30.01F 6HR MIN TEMP: 68; 6HR MAX TEMP: 77; Atlanta PTCLDY 73 63 70 NW8 29.93S 6HR MIN TEMP: 73; 6HR MAX TEMP: 85; $$ GAZ044-118-TXZ119-213-NCZ071-DCZ001-MDZ014-506-PAZ021-071-NJZ106- NYZ176-178-MAZ106-OHZ011-021-055-MIZ076-KYZ091-ILZ014-INZ047- MNZ060-ONZ431-240700- ...Gateway Observations for Savannah International... CITY SKY/WX TMP DP RH WIND PRES REMARKS Savannah Arpt CLEAR 79 76 90 SW7 29.87F 6HR MIN TEMP: 79; 6HR MAX TEMP: 81; 6HR PCP: 0.11; Atlanta PTCLDY 73 63 70 NW8 29.93S 6HR MIN TEMP: 73; 6HR MAX TEMP: 85; Charlotte MOCLDY 75 65 70 NE8 29.90F 6HR MIN TEMP: 73; 6HR MAX TEMP: 82; Dallas DFW CLOUDY 82 71 69 E3 29.93F 6HR MIN TEMP: 82; 6HR MAX TEMP: 87; Houston Bush MOCLDY 79 74 84 N5 29.90F 6HR MIN TEMP: 79; 6HR MAX TEMP: 89; Wash National PTCLDY 72 61 68 N7 29.92S 6HR MIN TEMP: 72; 6HR MAX TEMP: 81; Wash Dulles PTCLDY 64 61 90 W3 29.93S 6HR MIN TEMP: 63; 6HR MAX TEMP: 76; Baltimore PTCLDY 67 60 78 N3 29.90F 6HR MIN TEMP: 65; 6HR MAX TEMP: 77; Philadelphia PTCLDY 69 57 65 NW6 29.89F 6HR MIN TEMP: 68; 6HR MAX TEMP: 79; Newark CLEAR 69 56 62 SW3 29.88S 6HR MIN TEMP: 69; 6HR MAX TEMP: 78; Laguardia CLEAR 74 55 51 NW5 29.87S 6HR MIN TEMP: 74; 6HR MAX TEMP: 79; J F K CLEAR 67 62 84 CALM 29.88F 6HR MIN TEMP: 67; 6HR MAX TEMP: 78; Boston CLEAR 67 52 58 W9 29.85S 6HR MIN TEMP: 67; 6HR MAX TEMP: 76; Pittsburg MOCLDY 62 58 86 S3 29.99R 6HR MIN TEMP: 61; 6HR MAX TEMP: 71; Akron PTCLDY 61 54 77 CALM 29.99R 6HR MIN TEMP: 60; 6HR MAX TEMP: 68; Cleveland PTCLDY 60 56 86 S3 29.99S 6HR MIN TEMP: 60; 6HR MAX TEMP: 73; Cincinnati CLEAR 63 55 75 N3 30.03R 6HR MIN TEMP: 63; 6HR MAX TEMP: 74; Columbus CLEAR 61 55 82 NW5 30.01S Detroit PTCLDY 60 49 66 N6 30.01S 6HR MIN TEMP: 60; 6HR MAX TEMP: 70; Chicago O`Hare PTCLDY 64 55 72 CALM 30.03S 6HR MIN TEMP: 63; 6HR MAX TEMP: 72; Minneapolis CLOUDY 65 51 60 NE7 30.10R 6HR MIN TEMP: 65; 6HR MAX TEMP: 74; Indianapolis CLEAR 62 54 74 NE5 30.03S 6HR MIN TEMP: 61; 6HR MAX TEMP: 72; Toronto Canada CLEAR 54 48 82 W7 29.95S $$

USA.gov is the U.S. government's official web portal to all federal, state and local government web resources and services.